Location: Gorzów Wielkopolski
(52.7309°N, 15.2377°E)
Time: 22:20:22
(UTC+02:00)

ISS - Visible Passes

Search period start: 22 September 2018 00:00
Search period end: 02 October 2018 00:00
Orbit: 403 x 408 km, 51.6° (Epoch: 23 September)

Date Brightness Start Highest point End Pass type
(mag) Time Alt. Az. Time Alt. Az. Time Alt. Az.
22 Sep -1.5 20:28:21 10° S 20:28:53 12° S 20:28:53 12° S visible
23 Sep -1.6 21:11:24 10° SW 21:12:21 17° SSW 21:12:21 17° SSW visible
24 Sep -2.6 20:19:56 10° SSW 20:22:41 25° SSE 20:22:54 24° SE visible
24 Sep -0.7 21:55:35 10° WSW 21:55:36 10° WSW 21:55:36 10° WSW visible
25 Sep -2.0 19:28:45 10° S 19:30:59 17° SE 19:33:14 10° ESE visible
25 Sep -2.7 21:03:47 10° WSW 21:05:59 35° SW 21:05:59 35° SW visible
26 Sep -3.2 20:12:04 10° SW 20:15:10 39° SSE 20:16:15 29° ESE visible
26 Sep -1.0 21:48:11 10° W 21:48:56 16° W 21:48:56 16° W visible
27 Sep -2.6 19:20:28 10° SSW 19:23:22 28° SSE 19:26:16 10° E visible
27 Sep -3.4 20:56:18 10° WSW 20:59:06 57° SW 20:59:06 57° SW visible
28 Sep -3.6 20:04:26 10° WSW 20:07:41 57° SSE 20:09:12 27° E visible
28 Sep -1.2 21:40:47 10° W 21:41:52 19° W 21:41:52 19° W visible
29 Sep -3.2 19:12:38 10° SW 19:15:48 44° SSE 19:18:58 10° E visible
29 Sep -3.7 20:48:51 10° W 20:51:54 69° SW 20:51:54 69° SW visible
30 Sep -3.8 19:56:54 10° WSW 20:00:12 71° S 20:01:54 26° E visible
30 Sep -1.3 21:33:21 10° W 21:34:34 21° W 21:34:34 21° W visible
01 Oct -3.8 20:41:22 10° W 20:44:32 68° SSW 20:44:32 68° SSW visible
